Location: Colorado Springs
(38.8340°N, 104.8210°W)
Time: 00:24:05
(UTC-06:00)

Envisat - Pass Details

Date: 10 October 2017
Orbit: 764 x 766 km, 98.2° (Epoch: 21 October)

Event Time Altitude Azimuth Distance (km) Brightness Sun altitude
Exits shadow 20:47:54 55° 357° (N) 915 3.4 -28.0°
Drops below altitude 10° 20:51:52 10° 349° (N) 2,309 5.7 -28.7°
Sets 20:54:11 0° 349° (N) 3,239 6.6 -29.1°
